DateTimeUTC,F1_A11,F1_S11,BsB_S11,BsG_S11,BsR_S11,BbsB_S11,BbsG_S11,BbsR_S11,BaB_A11,BaG_A11,BaR_A11,Tu_S11,T_S11,Uu_S11,U_S11,P_S11,T1_A11
2021-08-08T06:00:00Z,00000200,20000000,,,,,,,-000.24,0000.12,-000.48,18.5,25.4,04.6,03.0,0666.1,31.1
2021-08-08T06:01:00Z,00000200,20000000,,,,,,,0000.05,0000.09,-000.16,18.5,25.4,04.6,03.0,0666.1,31.1
2021-08-08T06:02:00Z,00000200,20000000,,,,,,,-000.58,-000.55,-000.25,18.5,25.4,04.3,02.8,0666.1,31.1
2021-08-08T06:03:00Z,00000200,60000000,,,,,,,0000.64,0000.24,0000.12,18.5,25.4,04.3,02.8,0666.1,31.1
2021-08-08T06:04:00Z,00000200,40000000,0001.04,0000.70,0000.24,0000.04,0000.12,-000.03,-000.38,-000.12,0000.05,18.6,25.2,04.4,02.9,0667.0,31.0
2021-08-08T06:05:00Z,00000200,00000000,0000.96,0000.78,0000.39,0001.01,-000.10,0000.48,0000.28,0000.19,-000.07,18.6,25.1,04.3,02.9,0667.0,31.0
2021-08-08T06:06:00Z,00000200,00000000,0001.57,0001.23,0000.34,0000.54,0000.12,-000.14,0000.15,0000.34,0000.51,18.6,25.1,04.4,03.0,0667.0,31.0
2021-08-08T06:07:00Z,00000200,00000000,0000.73,0001.01,0000.45,0000.50,0000.40,0000.18,-000.15,-000.12,-000.07,18.6,25.1,04.4,02.9,0667.0,31.0
2021-08-08T06:08:00Z,00000200,00000000,0000.63,0000.82,0000.27,0000.56,0000.30,0000.20,0000.30,0000.23,0000.14,18.6,25.1,04.4,03.0,0667.0,31.0
2021-08-08T06:09:00Z,00000200,00000000,0000.67,0000.73,0000.38,0000.31,-000.01,-000.10,0000.15,-000.10,0000.10,18.7,25.1,04.3,02.9,0667.1,31.0
2021-08-08T06:10:00Z,00000200,00000000,0001.22,0000.91,0000.24,0000.79,0000.31,0000.29,0000.24,0000.49,0000.54,18.7,25.1,04.3,02.9,0667.0,31.1
2021-08-08T06:11:00Z,00000200,00000000,0001.11,0001.01,0000.23,0001.05,0000.55,0000.17,0000.21,-000.10,-000.10,18.7,25.1,04.4,02.9,0667.0,31.1
2021-08-08T06:12:00Z,00000200,00000000,0000.82,0000.81,0000.32,0000.36,0000.43,0000.03,0000.27,-000.04,-000.36,18.8,25.2,04.3,02.9,0667.1,31.1
2021-08-08T06:13:00Z,00000200,00000000,0000.92,0000.96,0000.30,0000.70,0000.31,0000.31,-000.11,0000.35,0000.40,18.8,25.2,04.2,02.8,0667.1,31.1
2021-08-08T06:14:00Z,00000200,00000000,0001.50,0000.85,0000.49,0000.89,0000.20,0000.17,0000.12,-000.18,-000.40,18.7,25.2,04.1,02.8,0667.1,31.1
2021-08-08T06:15:00Z,00000200,00000000,0001.20,0001.02,0000.19,0000.12,0000.22,0000.04,-000.02,0000.49,0000.48,18.7,25.2,04.1,02.8,0667.1,31.0
2021-08-08T06:16:00Z,00000200,00000000,0000.93,0001.08,0000.30,0000.55,0000.39,0000.31,0000.46,0000.18,0000.17,18.7,25.1,04.2,02.8,0667.1,31.1
2021-08-08T06:17:00Z,00000200,00000000,0000.69,0001.18,0000.44,-000.07,0000.17,0000.12,-000.40,-000.43,-000.56,18.7,25.1,04.0,02.7,0667.1,31.0
2021-08-08T06:18:00Z,00000200,00000000,0001.27,0000.73,0000.41,0000.58,0000.19,0000.18,0000.35,0000.04,0000.50,18.7,25.1,04.2,02.8,0667.1,31.0
2021-08-08T06:19:00Z,00000200,00000000,0001.50,0000.76,0000.45,0001.21,-000.13,0000.27,0000.03,0000.06,0000.08,18.6,25.1,04.0,02.7,0667.1,31.0
2021-08-08T06:20:00Z,00000200,00000000,0000.69,0000.98,0000.23,0000.60,0000.21,0000.22,0000.41,0000.42,0000.21,18.6,25.0,04.1,02.8,0667.1,31.1
2021-08-08T06:21:00Z,00000200,00000000,0001.27,0000.97,0000.26,0000.59,0000.40,0000.31,-000.05,-000.01,-000.22,18.6,25.1,04.1,02.7,0667.1,31.0
2021-08-08T06:22:00Z,00000200,00000000,0001.59,0000.86,0000.45,0000.61,0000.17,0000.20,0000.12,0000.41,0000.52,18.6,25.1,04.2,02.8,0667.1,31.0
2021-08-08T06:23:00Z,00000200,00000000,0000.92,0000.99,0000.20,0000.30,0000.11,0000.11,0000.08,-000.22,0000.09,18.6,25.1,04.1,02.8,0667.1,31.0
2021-08-08T06:24:00Z,00000200,00000000,0000.85,0000.66,0000.21,0000.80,0000.27,0000.00,0000.25,0000.41,0000.22,18.6,25.1,04.0,02.7,0667.1,31.0
2021-08-08T06:25:00Z,00000200,00000000,0001.38,0001.25,0000.07,0000.36,0000.43,0000.13,0000.23,0000.16,0000.19,18.7,25.1,04.1,02.7,0667.1,31.1
2021-08-08T06:26:00Z,00000200,00000000,0001.69,0001.29,0000.46,0000.29,0000.03,-000.03,-000.03,-000.23,-000.14,18.7,25.2,04.0,02.7,0667.1,31.1
2021-08-08T06:27:00Z,00000200,00000000,0000.22,0000.71,0000.16,0000.79,0000.29,0000.12,0000.26,0000.41,0000.05,18.8,25.2,03.9,02.6,0667.1,31.1
2021-08-08T06:28:00Z,00000200,00000000,0001.10,0000.80,0000.53,0000.13,0000.03,0000.32,0000.16,-000.26,-000.13,18.8,25.2,03.9,02.7,0667.1,31.1
2021-08-08T06:29:00Z,00000200,00000000,0000.90,0001.06,0000.05,0000.79,0000.13,0000.22,-000.26,0000.37,0000.05,18.8,25.2,03.8,02.6,0667.1,31.1
2021-08-08T06:30:00Z,00000200,00000000,0001.40,0000.94,0000.25,0000.42,-000.00,0000.05,0000.54,0000.34,-000.08,18.8,25.2,03.8,02.6,0667.1,31.1
2021-08-08T06:31:00Z,00000200,00000000,0000.41,0000.80,0000.33,0000.75,0000.09,0000.12,0000.13,0000.10,0000.75,18.7,25.1,03.7,02.5,0667.1,31.1
2021-08-08T06:32:00Z,00000200,00000000,0001.26,0000.65,0000.56,0000.48,0000.32,0000.28,-000.04,-000.15,-000.11,18.7,25.1,03.7,02.5,0667.1,31.0
2021-08-08T06:33:00Z,00000200,00000000,0001.41,0000.91,0000.50,0000.69,0000.48,-000.06,0000.16,0000.22,0000.36,18.7,25.1,03.7,02.5,0667.1,31.0
2021-08-08T06:34:00Z,00000200,00000000,0000.82,0001.06,0000.17,0000.63,-000.17,-000.24,-000.02,0000.19,-000.29,18.7,25.1,03.7,02.5,0667.1,31.0
2021-08-08T06:35:00Z,00000200,00000000,0000.67,0001.08,0000.26,0000.33,0000.22,0000.11,0000.24,0000.10,0000.26,18.7,25.1,03.7,02.5,0667.1,31.1
2021-08-08T06:36:00Z,00000200,00000000,0001.37,0000.92,0000.14,0000.98,-000.04,-000.16,0000.05,0000.38,-000.12,18.7,25.1,03.7,02.5,0667.1,31.0
2021-08-08T06:37:00Z,00000200,00000000,0001.30,0001.08,0000.61,0000.85,0000.42,0000.17,0000.05,-000.12,-000.01,18.7,25.1,03.7,02.5,0667.1,31.0
2021-08-08T06:38:00Z,00000200,00000000,0000.24,0000.76,0000.27,0000.11,0000.06,0000.00,0000.57,0000.32,0000.71,18.6,25.1,03.7,02.5,0667.1,31.0
2021-08-08T06:39:00Z,00000200,00000000,0000.32,0000.96,0000.47,0000.55,0000.15,0000.22,-000.06,-000.11,-000.21,18.7,25.1,03.6,02.5,0667.1,31.0
2021-08-08T06:40:00Z,00000200,00000000,0001.45,0000.70,0000.06,0000.63,0000.32,-000.03,-000.36,-000.16,-000.11,18.7,25.1,03.6,02.4,0667.1,31.1
2021-08-08T06:41:00Z,00000200,00000000,0001.55,0000.99,0000.62,0000.60,0000.20,0000.24,0000.36,0000.03,0000.12,18.7,25.1,03.6,02.4,0667.1,31.1
2021-08-08T06:42:00Z,00000200,00000000,0000.80,0000.65,0000.61,-000.47,0000.32,0000.34,0000.28,0000.44,0000.33,18.7,25.1,03.5,02.4,0667.1,31.1
2021-08-08T06:43:00Z,00000200,00000000,0001.54,0000.91,0000.17,0000.07,0000.33,0000.29,-000.10,-000.13,-000.34,18.7,25.2,03.4,02.3,0667.1,31.1
2021-08-08T06:44:00Z,00000200,00000000,0000.87,0000.99,0000.31,0000.69,0000.31,0000.02,-000.05,0000.06,0000.15,18.7,25.1,03.5,02.4,0667.1,31.0
2021-08-08T06:45:00Z,00000200,00000000,0000.84,0001.00,0000.17,0000.88,-000.32,-000.28,0000.32,0000.39,0000.56,18.7,25.1,03.5,02.4,0667.1,31.0
2021-08-08T06:46:00Z,00000200,00000000,0000.91,0001.17,0000.38,0000.56,0000.18,0000.01,0000.52,0000.33,-000.05,18.7,25.1,03.5,02.4,0667.1,31.0
2021-08-08T06:47:00Z,00000200,00000000,0000.93,0000.94,0000.44,-000.14,0000.32,0000.05,0000.15,-000.06,0000.52,18.7,25.1,03.5,02.4,0667.0,31.1
2021-08-08T06:48:00Z,00000200,00000000,0000.89,0000.96,0000.53,0000.53,0000.27,0000.32,-000.16,0000.06,-000.14,18.7,25.1,03.5,02.4,0667.0,31.0
2021-08-08T06:49:00Z,00000200,00000000,0000.60,0000.99,0000.69,0000.46,-000.05,0000.24,0000.36,0000.29,-000.22,18.6,25.1,03.6,02.5,0667.1,31.0
2021-08-08T06:50:00Z,00000200,00000000,0001.43,0000.71,0000.34,0000.26,0000.19,-000.07,0000.24,0000.38,0000.69,18.6,25.0,03.6,02.4,0667.1,31.0
2021-08-08T06:51:00Z,00000200,00000000,0000.87,0000.73,0000.27,0000.56,-000.09,0000.09,0000.46,-000.01,0000.07,18.6,25.0,03.7,02.5,0667.1,31.0
2021-08-08T06:52:00Z,00000200,00000000,0000.87,0001.42,0000.77,0000.39,0000.30,-000.08,-000.20,0000.49,0000.24,18.6,25.0,03.7,02.5,0667.1,31.0
2021-08-08T06:53:00Z,00000200,00000000,0000.73,0000.58,0000.48,0000.78,-000.02,0000.29,0000.50,0000.10,0000.17,18.6,25.0,03.7,02.5,0667.1,31.0
2021-08-08T06:54:00Z,00000200,00000000,0000.32,0000.61,0000.48,-000.11,0000.30,0000.12,0000.13,0000.12,0000.05,18.5,25.0,03.7,02.5,0667.1,31.0
2021-08-08T06:55:00Z,00000200,00000000,0001.06,0000.96,0000.27,0000.48,0000.30,-000.14,0000.73,0000.59,0000.48,18.5,25.0,03.7,02.5,0667.1,31.0
2021-08-08T06:56:00Z,00000200,00000000,0001.08,0001.05,0000.46,0001.03,0000.13,0000.30,-000.10,0000.51,0000.10,18.5,25.0,03.8,02.6,0667.1,31.0
2021-08-08T06:57:00Z,00000200,40000000,,,,,,,0000.60,-000.18,0000.46,18.5,25.0,04.2,02.8,0667.1,31.0
2021-08-08T06:58:00Z,00000200,60000000,,,,,,,-000.43,-000.04,-000.30,18.2,25.1,04.1,02.7,0666.1,31.0
2021-08-08T06:59:00Z,00000200,20000000,,,,,,,0000.05,0000.15,-000.39,18.2,25.2,04.0,02.6,0666.1,31.0
